Regional Weather Roundup
Issued by NWS Northern Indiana

Home | Current Version | Previous Version | Text Only | Print | Product List | Glossary On
Versions: 1 2 3 4 5 6 7 8 9 10 11 12 13 14 15 16 17 18 19 20 21 22 23 24 25 26 27 28 29 30 31 32 33 34 35 36 37 38 39 40 41 42 43 44 45 46 47 48 49 50
000
ASUS43 KIWX 180310
RWRIWX

KIWX WEATHER ROUNDUP
NATIONAL WEATHER SERVICE NORTHERN INDIANA
1100 PM EDT THU AUG 17 2017

NOTE: "FAIR" INDICATES FEW OR NO CLOUDS BELOW 12,000 FEET WITH NO
SIGNIFICANT WEATHER AND/OR OBSTRUCTIONS TO VISIBILITY.

* THESE STATIONS ARE NOT UNDER NWS QUALITY CONTROL. THEY ALSO MAY NOT
  REPORT WEATHER SUCH AS PRECIPITATION OR FOG.

INZ001>027-180400-
NORTHERN INDIANA

CITY           SKY/WX    TMP DP  RH WIND       PRES   REMARKS
GARY*            N/A     79  64  61 W17       29.79R
VALPARAISO     CLOUDY    75  68  78 SW10      29.80S
MICHIGAN CITY* CLOUDY    73  64  73 SW8       29.78S
LAPORTE*       CLOUDY    73  67  81 SW5       29.79S
KNOX*          PTCLDY    72  66  83 SW8       29.80R
SOUTH BEND     CLOUDY    74  68  81 SW9       29.79R
GOSHEN         MOCLDY    72  65  78 SW9       29.80R
MONTICELLO*    CLEAR     71  67  87 SW6       29.82S
LOGANSPORT*    PTCLDY    70  64  83 SW7       29.83F
ROCHESTER*     CLEAR     73  68  83 SW6       29.82S
WARSAW*        CLOUDY    73  66  78 SW7       29.82R
AUBURN*        CLEAR     72  64  78 SW6       29.82S
FORT WAYNE     MOCLDY    72  66  81 SW9       29.82S
HUNTINGTON*    CLEAR     73  69  87 SW5       29.83S
PERU/GRISSOM   CLEAR     71  70  97 SW8       29.83R
MARION*        PTCLDY    70  66  88 SW6       29.85R

$$
INZ028>050-180400-
CENTRAL INDIANA

CITY           SKY/WX    TMP DP  RH WIND       PRES   REMARKS
LAFAYETTE      CLEAR     71  68  90 W3        29.83R
KOKOMO*        CLEAR     71  68  90 SW6       29.85R
MUNCIE*        PTCLDY    76  69  79 SW6       29.85R
INDIANAPOLIS   PTCLDY    75  68  78 SW8       29.85R

$$
MIZ043>046-050>051-056>058-064>065-071>073-077>080-180400-
SOUTHWEST LOWER MICHIGAN

CITY           SKY/WX    TMP DP  RH WIND       PRES   REMARKS
BATTLE CREEK   MOCLDY    75  67  76 SW14      29.76S
BENTON HARBOR  CLOUDY    78  65  63 SW16G25   29.75R
COLDWATER*     CLOUDY    73  67  81 SW9       29.78F
HILLSDALE*     CLOUDY    72  64  78 SW8       29.79S
HOLLAND        CLOUDY    72  67  84 W12       29.72F
GRAND RAPIDS   CLOUDY    71  69  93 SW15      29.72S
KALAMAZOO      CLOUDY    76  65  68 SW13G21   29.75S
STURGIS*       CLOUDY    70  67  88 SW8       29.78S
THREE RIVERS*  CLOUDY    74  66  74 SW8       29.77F

$$
OHZ001>008-015>018-024>025-180400-
NORTHWEST OHIO

CITY           SKY/WX    TMP DP  RH WIND       PRES   REMARKS
WAUSEON*         N/A     73  66  78 SW9       29.79S
DEFIANCE       CLEAR     74  66  76 VRB3      29.81R
FINDLAY        CLEAR     76  67  73 SW10      29.81S
TOLEDO EXPRESS CLEAR     76  69  79 SW10      29.78S
TOLEDO METCALF CLEAR     76  70  82 SW10      29.79R
LIMA           PTCLDY    74  70  87 SW7       29.84R

$$
AND FOR LAKE MICHIGAN COASTAL AND OPEN LAKE BUOY OBSERVATIONS

STATION/POSITION TEMP    WIND        PRES    VSBY  WAVE
                 AIR SEA DIR/SP/G                  HT/PER
                 (F)     (DEG/KT/KT) (MB)    (MI)  (FT/S)
CALUMET HARBOR    78     230/  9/ 13 1007.9R
MICHIGAN CITY     76     210/ 18/ 19   N/A
BURNS HARBOR      77     230/ 13/ 18 1008.8R
SAINT JOSEPH      76     220/ 16/ 19 1007.5
SOUTH LAKE BUOY   73 71  270/ 19/ 23 1005.5F         3/ 5
4 MI NW BRIDGMAN  76 74  240/ 16/ 21 1007.2          4/ 4
MICHIGAN CITY     77 74  240/ 16/ 21   N/A           4/ 4

$$
&&




USA.gov is the U.S. government's official web portal to all federal, state and local government web resources and services.